Regional Weather Roundup
Issued by NWS Grand Forks, ND

Home | Current Version | Previous Version | Text Only | Print | Product List | Glossary Off
Versions: 1 2 3 4 5 6 7 8 9 10 11 12 13 14 15 16 17 18 19 20 21 22 23 24 25 26 27 28 29 30 31 32 33 34 35 36 37 38 39 40 41 42 43 44 45 46 47 48 49 50

000
ASUS43 KFGF 292310
RWRFGF
PRAIRIE TO PINES  WEATHER ROUNDUP
NATIONAL WEATHER SERVICE EASTERN NORTH DAKOTA/GRAND FORKS ND
600 PM CDT SAT APR 29 2017

 **SATELLITE DATA USED TO AUGMENT SKY COVER AT AUTOMATED STATIONS**
 *****  WEATHER ACROSS EASTERN NORTH DAKOTA  *****

CITY           SKY/WX    TMP DP  RH WIND       PRES   REMARKS
GRAND FORKS    FAIR      61  25  25 SE5       30.26F
GRAND FRKS AFB FAIR      59  21  23 E3        30.26F
DEVILS LAKE    FAIR      60  17  18 SE5       30.22F
FARGO          FAIR      61  18  18 N8        30.24F
WAHPETON ARPT  FAIR      55  23  28 N10       30.23F
$$

 ***** WEATHER ACROSS CENTRAL AND WESTERN NORTH DAKOTA  *****

CITY           SKY/WX    TMP DP  RH WIND       PRES   REMARKS
BISMARCK       FAIR      62  21  20 E8        30.20F
MINOT          FAIR      63  26  24 SW9G16    30.15F
JAMESTOWN      FAIR      59  21  23 NE6       30.22F
MINOT AFB      FAIR      64  29  27 W10       30.14F
GARRISON         N/A     61  21  21 SE7       30.16F
WILLISTON      FAIR      63  31  30 SW10      30.15F
DICKINSON      CLOUDY    59  18  20 VRB5      30.15F
HETTINGER      FAIR      57  17  21 SW6       30.19F
$$

 *****  OTHER AIRPORT OBSERVATIONS IN OUR AREA  *****

CITY           SKY/WX    TMP DP  RH WIND       PRES   REMARKS
WALHALLA       NOT AVBL
GRAFTON AIRPOR FAIR      59  27  29 SE10      30.27F
VALLEY CITY AR FAIR      59  18  20 SE6       30.24F
CANDO          NOT AVBL
CAVALIER APRT  FAIR      59  27  29 SE12      30.23F
GWINNER        CLEAR     57  23  26 MISG      30.22F
SHEYENNE NWR     N/A     59  22  24 E6        29.95S
ROLLA          FAIR      61  23  23 SW13      30.19F
 ***** THE ABOVE OBSERVATIONS ARE NON NWS ARE NOT QUALITY
       CONTROLLED AND MAY MIS-REPORT RAIN FOR SNOW...
$$

  *****  WEATHER ACROSS NORTHERN MINNESOTA  *****

CITY           SKY/WX    TMP DP  RH WIND       PRES   REMARKS
FLAG ISLAND    FAIR      52  16  24 SE5       30.28F
WARROAD        FAIR      52  28  40 NE8       30.29F
ROSEAU         FAIR      57  25  28 S3        30.27F
HALLOCK        FAIR      61  14  16 S6        30.26F
THF RVR FALLS  FAIR      57  18  21 E7        30.27F
BAUDETTE       FAIR      59  19  21 CALM      30.27F
WASKISH        FAIR      54  27  35 W6        30.28F
CROOKSTON      FAIR      57  21  24 SE3       30.27F
STEPHEN NDAWN    N/A     61  21  21 SE2         N/A
GREENBUSH NDAW   N/A     59  23  25 SE3         N/A
$$
  *****  WEATHER ACROSS CENTRAL AND WEST MINNESOTA  *****

CITY           SKY/WX    TMP DP  RH WIND       PRES   REMARKS
FOSSTON        FAIR      63  27  25 CALM      30.26F
BEMIDJI        FAIR      56  22  26 E7        30.26F
PARK RAPIDS    FAIR      56  17  21 NE10      30.24F
ELBOW LAKE     FAIR      55  25  31 E6        30.22F
WADENA         FAIR      55  25  30 NE12G17   30.22F
DETROIT LAKES  FAIR      55  23  28 N3        30.25F
MOORHEAD       FAIR      57  21  24 E7        30.25F
FERGUS FALLS   FAIR      55  25  30 E10       30.22F
MORRIS MN      FAIR      57  25  28 NE13G18   30.19F
STAPLES        FAIR      55  18  22 NE8       30.22F
$$
  *****  WEATHER ELSEWHERE ACROSS MINNESOTA  *****

CITY           SKY/WX    TMP DP  RH WIND       PRES   REMARKS
DULUTH         FAIR      45  17  32 E13       30.31F
INTRNTL FALLS  FAIR      54  16  22 E7        30.30F
ELY            FAIR      52   7  16 NW5       30.30F
CLOQUET        FAIR      46   7  19 E10G17    30.30F
WHEATON        FAIR      55  21  26 N10       30.23F
BRAINERD       FAIR      54  19  25 E10       30.24F
HIBBING        FAIR      54  15  21 N6        30.28F
ALEXANDRIA     FAIR      55  21  26 E12       30.22F
SAINT CLOUD    FAIR      55  19  24 NE17      30.19F
MINNEAPOLIS    CLOUDY    55  21  26 NE20G28   30.17F
$$

  *****  WEATHER ACROSS SOUTH DAKOTA  *****

CITY           SKY/WX    TMP DP  RH WIND       PRES   REMARKS
SIOUX FALLS    CLOUDY    52  25  35 NE23G30   30.10F
BROOKINGS      FAIR      51  22  31 NE18G24   30.12
WATERTOWN      FAIR      52  24  33 NE16G22   30.17F
HURON          FAIR      55  21  26 NE15      30.15F
SISSETON         N/A     58  21  24 NE13      30.19F
ABERDEEN       FAIR      58  14  17 NE8       30.19F
MITCHELL       FAIR      55  20  25 NE20G28   30.13F
PIERRE         FAIR      59  15  18 NE15      30.16F
MOBRIDGE       FAIR      61  15  16 VRB6      30.16F
RAPID CITY     FAIR      54  18  24 N8        30.19S
$$

  *****  SOME WEATHER IN NEARBY STATES *****

CITY           SKY/WX    TMP DP  RH WIND       PRES   REMARKS
GLASGOW MT     FAIR      59  32  36 SE12G23   30.11F
GREAT FALLS MT PTSUNNY   57  25  29 W15       30.06F
CHEYENNE WY    CLOUDY    32  14  47 N14G25    30.17F WCI  22
SCOTTSBLUFF NE FAIR      45  26  47 N13       30.19F
OMAHA NE       LGT RAIN  45  38  76 NE17G32   29.99R
DES MOINES IA  CLOUDY    44  37  76 NE13G23   30.01R
DAVENPORT IA   LGT RAIN  40  37  89 NE33G41   30.00F
CHICAGO IL     RAIN      40  37  89 NE18      30.12F FOG
EAU CLAIRE WI  FAIR      53  26  35 NE13      30.16F
LA CROSSE WI   CLOUDY    51  29  42 NE12G18   30.15F
$$

  *****  SOME NATIONAL WEATHER *****

CITY           SKY/WX    TMP DP  RH WIND       PRES   REMARKS
LA GUARDIA NY  MOCLDY    83  57  41 W12G22    29.96F
RALEIGH NC     PTSUNNY   85  68  56 S13       30.13S
ATLANTA GA     PTSUNNY   84  64  50 S15G23    30.07S
NEW ORLEANS LA PTSUNNY   82  74  76 SE17G28   29.87F
OKLAHOMA CITY  DRZL/FOG  50  50 100 MISG      29.62R VSB 3/4
ALBUQUERQUE NM PTSUNNY   48  28  46 E10       29.92F
SALT LAKE CITY PTSUNNY   56  26  31 NW12      30.18F
LOS ANGELES CA FAIR      70  44  39 W22       29.99F
BOISE ID       FAIR      60  23  24 VRB6      30.18F
SEATTLE WA     CLOUDY    56  42  59 SW5       30.17F
$$

*** WEATHER ACROSS MANITOBA...SASKATCHEWAN AND ONTARIO ***
                ***ONTARIO***

CITY           SKY/WX    TMP DP  RH WIND       PRES   REMARKS
GERALDTON      SUNNY     46  19  34 NE2       30.36R
THUNDER BAY    SUNNY     48  21  34 SE6       30.35F
SIOUX LOOKOUT  MOSUNNY   50  10  20 VRB2      30.33F
TORONTO        PTSUNNY   50  30  46 N17       30.18S
BIG TROUT LK   SUNNY     39  12  33 SE3       30.34F
PICKLE LAKE    SUNNY     48  12  23 CALM      30.34R
DRYDEN         SUNNY     50   5  16 VRB2      30.31F
KENORA         PTSUNNY   52   9  17 S6        30.29F
$$
                *** MANITOBA***

CITY           SKY/WX    TMP DP  RH WIND       PRES   REMARKS
BRANDON        PTSUNNY   63  32  31 W14G23    30.15F
DAUPHIN        SUNNY     63  23  22 W18G24    30.11F
ISLAND LAKE    MOSUNNY   48  19  32 SE3       30.26F
PILOT MOUND      N/A     61  19  20 S21G28      N/A
THE PAS        CLOUDY    46  28  49 SE16G24   30.14F
THOMPSON       PTSUNNY   46  21  36 VRB6      30.23F
WINNIPEG       PTSUNNY   61  18  18 S12G17    30.22F
LYNN LAKE      SUNNY     48  19  32 SE10      30.14F
CHURCHILL      CLOUDY    19  12  73 E3        30.33F
GILLAM         PTSUNNY   39  12  33 VRB2      30.31F
$$
                ***SASKATCHEWAN***

CITY           SKY/WX    TMP DP  RH WIND       PRES   REMARKS
ESTEVAN        PTSUNNY   61  28  29 W12G17    30.15F
KINDERSLEY     PTSUNNY   55  25  30 S9        30.02F
LLOYDMINSTER   PTSUNNY   55  30  38 SE10      29.99F
PRINCE ALBERT  MOSUNNY   54  28  37 NW5       30.09F
REGINA         MOSUNNY   57  25  28 W10G23    30.13F
YORKTON        CLOUDY    55  27  33 SW14      30.14S
N. BATTLEFORD  MOSUNNY   54  21  28 CALM      30.06F
LA RONGE       PTSUNNY   54  19  26 SE13G18   30.08F
SASKATOON      PTSUNNY   55  21  26 VRB2      30.08F
SWIFT CURRENT  LGT RAIN  43  39  87 N13       30.07F
$$
NOTE: THESE ARE AUTOMATED STATIONS WITH LIMITED QUALITY CONTROL
      "FAIR" INDICATES FEW OR NO CLOUDS BELOW 12,000 FEET WITH NO
      SIGNIFICANT WEATHER AND/OR OBSTRUCTIONS TO VISIBILITY.
      SKY/WX - SKY CONDITION AND SIGNIFICANT WEATHER.
      TMP - AIR TEMPERATURE.    DP   - DEWPOINT TEMPERATURE.
      RH  - RELATIVE HUMIDITY.  PRES - PRESSURE.
      HX  - HEAT INDEX.         WCI  - WIND CHILL INDEX.
$



USA.gov is the U.S. government's official web portal to all federal, state and local government web resources and services.